Pinedale, WY

6:47 PM MST on February 21, 2018 (GMT -0700)
Wenz

Weather History for KPNA - August, 2014

Change the Weather History Date:

Saturday, August 23, 2014

  Actual Average (KBPI) Record (KBPI)
Temperature  
Mean Temperature 47 °F -  
Max Temperature 53 °F 75 °F 88 °F (2011)
Min Temperature 41 °F 39 °F 27 °F (1988)
Degree Days  
Heating Degree Days 18    
Moisture  
Dew Point 41 °F    
Average Humidity 83    
Maximum Humidity 100    
Minimum Humidity 54    
Precipitation  
Precipitation 0.00 in - - ()
Sea Level Pressure  
Sea Level Pressure 30.11 in    
Wind  
Wind Speed 7 mph (West)    
Max Wind Speed 24 mph    
Max Gust Speed 32 mph    
Visibility 10 miles    
Events Rain , Thunderstorm    
Averages and records for this station are not official NWS values.
T = Trace of Precipitation, MM = Missing Value Source: NWS Daily Summary

Daily Weather History Graph

Daily Weather History Graph

Search for Another Location

Airport or City:

Trip Planner

Search our weather history database for the weather conditions in past years. The results will help you decide how hot, cold, wet, or windy it might be!

Date:

Astronomy

Aug. 23, 2014 Rise Set
Actual Time 6:34 AM MDT 8:08 PM MDT
Civil Twilight 6:04 AM MDT 8:38 PM MDT
Nautical Twilight 5:28 AM MDT 9:14 PM MDT
Astronomical Twilight 4:49 AM MDT 9:52 PM MDT
Moon 4:52 AM MDT (8/23) 6:55 PM MDT (8/23)
Length of Visible Light 14h 33m
Length of Day
13h 34m
Waning Crescent, 3% of the Moon is Illuminated
Aug 23
Waning Crescent
Aug 25
New
Sep 2
First Quarter
Sep 8
Full
Sep 15
Last Quarter

Hourly Weather History & Observations

Time (MDT) Temp. Windchill Dew Point Humidity Pressure Visibility Wind Dir Wind Speed Gust Speed Precip Events Conditions
12:15 AM 44.6 °F 41.4 °F 44.6 °F 100% 30.11 in 10.0 mi ESE 5.8 mph - N/A   Mostly Cloudy
12:35 AM 44.6 °F 41.4 °F 44.6 °F 100% 30.11 in 10.0 mi SSE 5.8 mph - N/A   Scattered Clouds
12:55 AM 44.6 °F 39.2 °F 44.6 °F 100% 30.12 in 10.0 mi WSW 10.4 mph - N/A   Clear
1:15 AM 44.6 °F 39.7 °F 44.6 °F 100% 30.11 in 10.0 mi WSW 9.2 mph - N/A   Scattered Clouds
1:35 AM 44.6 °F 38.8 °F 44.6 °F 100% 30.13 in 10.0 mi WSW 11.5 mph - N/A   Scattered Clouds
1:55 AM 44.6 °F 40.7 °F 44.6 °F 100% 30.13 in 10.0 mi WSW 6.9 mph - N/A   Mostly Cloudy
2:15 AM 44.6 °F 42.2 °F 44.6 °F 100% 30.13 in 10.0 mi WSW 4.6 mph - N/A   Mostly Cloudy
2:55 AM 44.6 °F - 44.6 °F 100% 30.13 in 10.0 mi Calm Calm - N/A   Scattered Clouds
3:15 AM 44.6 °F 43.1 °F 44.6 °F 100% 30.13 in 10.0 mi ENE 3.5 mph - N/A   Mostly Cloudy
3:35 AM 44.6 °F - 44.6 °F 100% 30.13 in 10.0 mi Calm Calm - N/A   Overcast
3:55 AM 44.6 °F - 44.6 °F 100% 30.11 in 10.0 mi Calm Calm - N/A   Overcast
4:35 AM 44.6 °F - 44.6 °F 100% 30.09 in 10.0 mi Calm Calm - N/A   Overcast
4:55 AM 44.6 °F 43.1 °F 44.6 °F 100% 30.09 in 10.0 mi East 3.5 mph - N/A   Overcast
5:15 AM 44.6 °F 42.2 °F 44.6 °F 100% 30.08 in 10.0 mi ESE 4.6 mph - N/A   Overcast
5:35 AM 42.8 °F 41.1 °F 42.8 °F 100% 30.09 in 10.0 mi SE 3.5 mph - N/A   Scattered Clouds
5:55 AM 42.8 °F - 42.8 °F 100% 30.09 in 10.0 mi Calm Calm - N/A   Mostly Cloudy
6:15 AM 44.6 °F - 44.6 °F 100% 30.09 in 10.0 mi Calm Calm - N/A   Overcast
6:35 AM 44.6 °F 42.2 °F 44.6 °F 100% 30.09 in 10.0 mi SSE 4.6 mph - N/A   Mostly Cloudy
6:55 AM 44.6 °F 42.2 °F 44.6 °F 100% 30.10 in 10.0 mi SSE 4.6 mph - N/A   Overcast
7:15 AM 44.6 °F 41.4 °F 44.6 °F 100% 30.10 in 10.0 mi South 5.8 mph - N/A   Overcast
7:35 AM 44.6 °F 40.7 °F 44.6 °F 100% 30.11 in 10.0 mi South 6.9 mph - N/A   Overcast
7:55 AM 44.6 °F 41.4 °F 44.6 °F 100% 30.11 in 10.0 mi South 5.8 mph - N/A   Overcast
8:15 AM 46.4 °F 43.5 °F 44.6 °F 93% 30.11 in 10.0 mi South 5.8 mph - N/A   Overcast
8:35 AM 46.4 °F 45.2 °F 44.6 °F 93% 30.11 in 10.0 mi SSW 3.5 mph - N/A   Overcast
8:55 AM 46.4 °F 45.2 °F 42.8 °F 87% 30.11 in 10.0 mi South 3.5 mph - N/A   Overcast
9:15 AM 46.4 °F 45.2 °F 44.6 °F 93% 30.11 in 10.0 mi SW 3.5 mph - N/A   Overcast
9:35 AM 46.4 °F - 42.8 °F 87% 30.09 in 10.0 mi Calm Calm - N/A   Overcast
10:15 AM 48.2 °F - 42.8 °F 82% 30.09 in 10.0 mi Calm Calm - N/A   Mostly Cloudy
10:35 AM 50.0 °F - 42.8 °F 76% 30.09 in 10.0 mi Calm Calm - N/A   Mostly Cloudy
10:55 AM 50.0 °F - 42.8 °F 76% 30.09 in 10.0 mi SW 3.5 mph - N/A   Overcast
11:15 AM 50.0 °F - 42.8 °F 76% 30.09 in 10.0 mi SSW 3.5 mph - N/A   Mostly Cloudy
11:35 AM 50.0 °F - 41.0 °F 71% 30.09 in 10.0 mi WSW 4.6 mph - N/A   Mostly Cloudy
11:55 AM 51.8 °F - 42.8 °F 71% 30.09 in 10.0 mi West 9.2 mph - N/A   Scattered Clouds
12:15 PM 51.8 °F - 42.8 °F 71% 30.09 in 10.0 mi West 10.4 mph - N/A Thunderstorm Scattered Clouds
12:35 PM 46.4 °F 40.1 °F 37.4 °F 71% 30.11 in 10.0 mi NW 15.0 mph - N/A Thunderstorm Thunderstorm
12:55 PM 46.4 °F 41.1 °F 41.0 °F 81% 30.11 in 10.0 mi NW 11.5 mph - N/A Rain Light Rain
1:15 PM 46.4 °F 43.5 °F 41.0 °F 81% 30.11 in 10.0 mi NNW 5.8 mph - N/A Rain Light Rain
1:35 PM 46.4 °F 42.9 °F 42.8 °F 87% 30.11 in 10.0 mi North 6.9 mph - N/A Thunderstorm Overcast
1:55 PM 50.0 °F - 41.0 °F 71% 30.10 in 10.0 mi North 6.9 mph - N/A   Mostly Cloudy
2:15 PM 51.8 °F - 41.0 °F 67% 30.09 in 10.0 mi North 10.4 mph - N/A   Clear
2:35 PM 53.6 °F - 39.2 °F 58% 30.09 in 10.0 mi NW 6.9 mph 19.6 mph N/A Thunderstorm Clear
2:55 PM 53.6 °F - 41.0 °F 62% 30.09 in 10.0 mi NNW 10.4 mph - N/A Thunderstorm Scattered Clouds
3:15 PM 53.6 °F - 37.4 °F 54% 30.09 in 10.0 mi WNW 21.9 mph 26.5 mph N/A   Scattered Clouds
3:35 PM 51.8 °F - 39.2 °F 62% 30.10 in 10.0 mi NW 24.2 mph 32.2 mph N/A   Mostly Cloudy
3:55 PM 51.8 °F - 37.4 °F 58% 30.09 in 10.0 mi NW 19.6 mph 23.0 mph N/A   Mostly Cloudy
4:15 PM 51.8 °F - 37.4 °F 58% 30.09 in 10.0 mi WNW 17.3 mph 21.9 mph N/A   Mostly Cloudy
4:35 PM 48.2 °F - 42.8 °F 82% 30.10 in 10.0 mi NW 20.7 mph 26.5 mph N/A Rain , Thunderstorm Light Thunderstorms and Rain
4:55 PM 51.8 °F - 39.2 °F 62% 30.11 in 10.0 mi NW 17.3 mph 31.1 mph N/A   Scattered Clouds
5:15 PM 51.8 °F - 37.4 °F 58% 30.11 in 10.0 mi NW 18.4 mph 25.3 mph N/A   Clear
5:35 PM 51.8 °F - 37.4 °F 58% 30.12 in 10.0 mi NW 17.3 mph 27.6 mph N/A   Scattered Clouds
5:55 PM 51.8 °F - 37.4 °F 58% 30.13 in 10.0 mi WNW 17.3 mph 24.2 mph N/A   Mostly Cloudy
6:15 PM 51.8 °F - 37.4 °F 58% 30.13 in 10.0 mi NW 19.6 mph 23.0 mph N/A   Mostly Cloudy
6:35 PM 50.0 °F - 37.4 °F 62% 30.14 in 10.0 mi NW 13.8 mph 20.7 mph N/A   Mostly Cloudy
6:55 PM 50.0 °F - 35.6 °F 58% 30.14 in 10.0 mi NW 12.7 mph - N/A   Overcast
7:35 PM 48.2 °F - 35.6 °F 62% 30.15 in 10.0 mi NW 9.2 mph - N/A   Scattered Clouds
7:55 PM 46.4 °F 43.5 °F 35.6 °F 66% 30.15 in 10.0 mi NW 5.8 mph - N/A   Clear
8:15 PM 42.8 °F 40.1 °F 37.4 °F 81% 30.15 in 10.0 mi West 4.6 mph - N/A   Clear
8:35 PM 42.8 °F 39.3 °F 37.4 °F 81% 30.15 in 10.0 mi West 5.8 mph - N/A   Mostly Cloudy
8:55 PM 44.6 °F 41.4 °F 37.4 °F 76% 30.15 in 10.0 mi WNW 5.8 mph - N/A   Overcast
9:15 PM 44.6 °F 42.2 °F 39.2 °F 81% 30.16 in 10.0 mi WNW 4.6 mph - N/A   Overcast
10:15 PM 42.8 °F 40.1 °F 37.4 °F 81% 30.16 in 10.0 mi WNW 4.6 mph - N/A   Mostly Cloudy
10:35 PM 42.8 °F 39.3 °F 39.2 °F 87% 30.17 in 10.0 mi WNW 5.8 mph - N/A   Scattered Clouds
10:55 PM 42.8 °F 39.3 °F 39.2 °F 87% 30.16 in 10.0 mi WNW 5.8 mph - N/A   Scattered Clouds
11:15 PM 42.8 °F 40.1 °F 39.2 °F 87% 30.16 in 10.0 mi WSW 4.6 mph - N/A   Mostly Cloudy
11:35 PM 41.0 °F 38.0 °F 37.4 °F 87% 30.16 in 10.0 mi WNW 4.6 mph - N/A   Scattered Clouds
11:55 PM 41.0 °F 38.0 °F 39.2 °F 93% 30.15 in 10.0 mi WNW 4.6 mph - N/A   Clear